Location: Les Chemineaux
(47.3024°N, 1.5104°E)
Time: 05:54:32
(UTC+00:00)

BlueWalker 3 - Pass Details

Date: 19 May 2025
Orbit: 460 x 472 km, 53.2° (Epoch: 18 June)

Event Time Altitude Azimuth Distance (km) Brightness Sun altitude
Rises 22:41:29 0° 291° (WNW) 2,497 6.0 -20.9°
Reaches altitude 10° 22:44:00 10° 274° (W) 1,620 4.8 -21.1°
Enters shadow 22:45:31 17° 253° (WSW) 1,241 3.9 -21.1°
